Location: Robert Ferguson Observatory
(38.4385°N, 122.5078°W)
Time: 09:51:15
(UTC-07:00)

Daily predictions for brighter satellites

Satellite Brightness Start Highest point End
(mag) Time Altitude Azimuth Time Altitude Azimuth Time Altitude Azimuth
GEOS 3 Rocket 3.7 20:45:43 10° SE 20:51:00 89° NE 20:56:15 10° NW
Atlas Centaur 2 3.8 20:45:15 10° SSW 20:51:17 27° SSE 20:58:00 10° ESE
USA 186 1.4 20:49:17 10° SSE 20:52:14 84° ENE 20:55:01 10° N
Aureole 2 Rocket 3.9 20:50:47 10° SSE 20:54:02 24° ESE 20:57:06 10° NE
Cosmos 2228 4.4 20:50:44 10° NNE 20:54:20 24° ENE 20:57:54 10° SE
CZ-2D R/B 3.5 20:50:48 10° S 20:54:41 73° W 20:58:35 10° NNW
Cosmos 1025 Rocket 3.0 20:50:41 10° S 20:55:04 79° E 20:59:27 10° N
Cosmos 2278 Rocket 2.4 20:49:27 10° NNW 20:55:09 79° WSW 21:00:48 10° SSE
CZ-4 DEB 2.9 20:53:55 10° S 20:57:08 82° WSW 21:00:23 10° NNW
Cosmos 494 Rocket 4.2 20:53:27 10° S 20:58:21 49° ESE 21:03:17 10° NNE
Cosmos 1939 Rocket 4.1 20:55:10 10° SE 20:58:44 28° ENE 21:02:18 10° NNE
Cosmos 1892 Rocket 3.7 20:55:15 10° S 20:59:35 59° E 21:03:59 10° NNE
Milstar 3 Cent rocket 3.7 20:56:03 10° WSW 21:03:29 30° SSW 21:08:11 10° SE
COSMOS 2455 4.1 21:00:13 10° SE 21:04:11 19° ESE 21:08:12 10° ENE
Cosmos 2219 Rocket 4.3 21:01:24 10° WSW 21:06:25 33° WNW 21:11:28 10° N
Cosmos 1666 3.8 21:03:15 10° NNE 21:06:38 28° ENE 21:09:52 11° SE
Cosmos 1500 4.0 21:04:09 10° NNW 21:07:57 56° W 21:11:45 10° S
Cosmos 2369 Rocket 4.5 21:07:53 10° NE 21:08:27 10° NE 21:09:01 10° NE
OTV 4 2.9 21:07:43 10° WSW 21:09:11 13° SSW 21:10:39 10° S
SPOT 5 3.8 21:06:12 10° SE 21:09:55 27° ENE 21:13:34 10° NNE
Lacrosse 5 rocket 2.4 21:06:15 10° WSW 21:09:57 47° NW 21:13:52 10° NNE
SL-16 R/B 2.2 21:07:20 10° SSW 21:12:59 84° ESE 21:18:40 10° NNE
Gbstr 26 Del rocket 4.5 21:08:28 10° NW 21:15:46 88° SW 21:23:15 13° SE
Cosmos 1743 2.9 21:14:36 10° N 21:18:28 75° W 21:22:16 10° S
Cosmos 1331 Rocket 4.0 21:17:06 10° NNW 21:22:20 83° ENE 21:27:27 10° SSE
Tsikada Rocket 4.5 21:19:42 10° SSE 21:25:39 42° E 21:31:36 10° NNE
Cosmos 1726 Rocket 3.8 21:21:22 10° NNW 21:25:49 72° W 21:30:12 10° S
BREEZE M DEB (TANK) 3.4 21:24:32 10° WNW 21:27:18 26° N 21:29:04 10° ENE
Okean 2 3.4 21:23:08 10° S 21:27:18 86° E 21:31:31 10° N
Meteor 1-23 Rocket 4.2 21:22:38 10° S 21:28:16 90° E 21:34:00 10° N
ALOS 3.6 21:26:31 10° SSW 21:30:50 38° W 21:35:12 10° NNW
Cosmos 1302 Rocket 4.2 21:26:32 10° N 21:31:42 59° ENE 21:35:46 16° SE
SeaSat 1 2.7 21:29:57 16° SE 21:33:47 54° ENE 21:38:36 10° NNW
Cosmos 2058 Rocket 3.3 21:32:49 10° NNW 21:37:11 71° W 21:41:30 10° S
Cosmos 2285 Rocket 4.0 21:30:50 10° NNW 21:37:11 89° WSW 21:43:00 13° SSE
CZ-2C R/B 2.6 21:36:52 10° SSW 21:38:49 23° W 21:40:47 10° NW
CZ-4B R/B 4.0 21:34:53 10° NNE 21:39:39 39° E 21:43:32 15° SSE
Cosmos 1603 3.8 21:36:23 10° S 21:41:50 55° ESE 21:47:18 10° NNE
Cosmos 1602 Rocket 3.6 21:38:33 10° S 21:42:58 64° E 21:47:25 10° NNE
PSLV R/B 3.2 21:41:55 26° SSE 21:43:28 59° ENE 21:46:32 10° N
APEX 3.7 21:40:41 10° NNW 21:44:46 76° ENE 21:48:19 20° SSE
UNK 4.3 21:39:44 10° NNE 21:45:04 57° ESE 21:50:39 10° S
Cosmos 1461 3.4 21:41:18 10° NNW 21:45:28 45° NE 21:47:38 23° ESE
Meteor 2-9 Rocket 4.3 21:42:35 10° N 21:48:17 82° W 21:53:43 12° S
Timation 1 Rocket 4.4 21:42:24 10° NNW 21:48:24 66° ENE 21:52:25 21° SE
Cosmos 1464 Rocket 4.1 21:43:37 10° N 21:49:44 75° W 21:55:52 10° S
Meteor 2-4 Rocket 4.4 21:44:36 10° SSW 21:50:20 58° WNW 21:56:11 10° N
Cosmos 1812 Rocket 3.8 21:50:45 10° N 21:55:01 50° E 21:57:06 27° SE
Centaur D AC-28 3.5 21:56:12 10° SW 21:58:16 14° SSW 21:58:43 14° S
YAOGAN 6 3.1 21:59:25 33° SE 22:00:38 46° ENE 22:04:14 10° N
ERS-1 Rocket 4.3 21:58:01 10° SSW 22:02:35 35° W 22:07:12 10° NNW
Envisat 3.2 22:00:03 17° S 22:04:00 70° WSW 22:09:06 10° NNW
H-2A R/B 3.6 22:02:57 10° SSW 22:06:43 31° W 22:10:35 10° NW
Cosmos 1943 3.8 22:05:17 27° SE 22:07:25 36° ESE 22:12:34 10° NE
Cosmos 2034 Rocket 4.2 22:01:22 10° N 22:07:44 73° W 22:13:09 14° S
Abrixas rocket 2.2 22:05:24 10° WNW 22:08:50 80° SW 22:09:36 51° SE
ATLAS 3B R/B 3.4 22:03:52 16° S 22:09:11 37° ESE 22:16:00 10° NE
Cosmos 1634 Rocket 4.5 22:04:03 10° N 22:09:53 43° ENE 22:12:35 28° SE
Cosmos 1626 Rocket 4.3 22:12:08 10° SSW 22:16:29 53° W 22:20:50 10° N
USA 81 4.3 22:12:01 10° N 22:17:10 51° E 22:19:05 34° SE
Cosmos 1943 Rocket 4.2 22:18:07 10° NNE 22:21:14 15° NE 22:23:46 11° E
USA 234 3.2 22:17:55 28° SE 22:21:42 85° NE 22:28:18 10° NW
MetOp-A 4.3 22:19:03 25° S 22:22:15 72° WSW 22:27:37 10° NNW
PSLV R/B 3.2 22:24:09 10° WSW 22:27:41 89° NW 22:28:20 58° ENE
CZ-4C R/B 3.8 22:27:06 43° ESE 22:27:54 50° ENE 22:31:56 10° N
ISS0.422:35:41NE22:35:41NE22:25:34SW
Cosmos 1953 Rocket 3.7 22:32:44 49° ESE 22:33:09 51° E 22:37:27 10° NNE
Atlas Centaur 2 3.3 22:32:46 10° WSW 22:40:18 45° S 22:43:36 32° ESE
H-2A R/B 2.4 22:40:36 40° ESE 22:41:34 45° ENE 22:46:20 10° N
CZ-4 R/B 4.1 22:38:00 10° N 22:42:59 73° WNW 22:45:46 27° SSW
Cosmos 1992 Rocket 3.9 22:39:30 10° NNW 22:44:45 81° ENE 22:46:04 51° SSE
DELTA 2 DEB (DPAF) 4.0 22:45:03 60° SSE 22:45:50 82° ENE 22:50:21 10° N
SPOT 5 4.5 22:45:25 15° SW 22:47:56 25° W 22:51:32 10° NW
Cosmos 2346 Rocket 4.4 22:45:39 29° S 22:49:00 84° W 22:55:12 10° N
COSMOS 2455 3.2 22:43:35 10° SW 22:49:32 63° WNW 22:55:31 10° NNE
IGS 5A 4.1 22:49:42 41° ENE 22:49:42 41° ENE 22:53:33 10° N
Cosmos 1953 4.2 22:47:03 10° NNE 22:49:20 19° ENE 22:49:20 19° ENE
SPOT 1/Viking Rocket 4.0 22:48:01 33° SSW 22:50:05 54° W 22:55:09 10° NNW
Cosmos 2369 Rocket 2.2 22:47:56 10° NNW 22:53:36 67° ENE 22:54:55 50° SE
Spot 4 4.3 22:53:33 43° E 22:53:58 44° ENE 22:58:31 10° N
ARGOS 3.4 22:52:25 39° SSW 22:54:21 65° WSW 22:59:45 10° NNW
Landsat 7 3.7 22:57:49 65° SSE 22:58:32 90° ENE 23:03:19 10° NNW
Geosat 4.3 22:54:11 10° NNE 22:59:11 67° WNW 23:02:23 22° SW
Cosmos-2242 4.1 22:55:13 10° NNE 22:58:51 33° ENE 22:58:51 33° ENE
Cosmos 1190 Rocket 3.9 22:57:52 43° SSW 22:59:39 88° WNW 23:05:00 10° NNE
DMSP B5D2-2 4.0 22:55:48 10° NNE 23:01:03 63° E 23:01:37 59° SE
NOAA 11 4.5 23:01:03 41° SSW 23:02:46 60° W 23:08:08 10° NNW
Lacrosse 4 Rocket 2.0 23:07:37 47° NE 23:07:37 47° NE 23:10:37 10° NNE
Spot 2 4.2 23:02:28 10° NNE 23:07:14 78° ESE 23:07:38 72° SSE
Cosmos 1758 Rocket 3.5 23:07:24 77° WSW 23:07:35 80° W 23:12:00 10° N
Meteor 1-22 Rocket 4.2 23:05:25 10° NNW 23:10:59 78° W 23:12:16 55° S
SeaSat 1 4.5 23:09:45 15° SW 23:11:33 18° WSW 23:14:52 10° WNW
CARTOSAT-1 3.5 23:11:49 85° NNW 23:11:49 85° NNW 23:16:04 10° NNW
SL-08 RB Rocket 4.4 23:11:32 41° SW 23:12:15 44° W 23:16:37 10° NNW
COSMOS 2406 4.3 23:14:45 29° E 23:14:45 29° E 23:18:36 10° NE
Cosmos 1346 Rocket 3.4 23:14:09 50° WNW 23:14:09 50° WNW 23:17:57 10° N
Terra 1.6 23:14:06 82° SSE 23:14:19 90° SW 23:19:07 10° NNW
Cosmos 2263 4.1 23:09:39 10° NNW 23:15:17 72° ENE 23:16:02 63° ESE
Cosmos 676 Rocket 3.9 23:15:26 72° SSE 23:15:51 77° ESE 23:21:12 10° NNE
SL-24 R/B 4.5 23:14:07 10° N 23:19:02 79° W 23:19:42 66° SSW
Cosmos 1140 Rocket 4.1 23:29:33 42° ENE 23:29:33 42° ENE 23:33:36 10° NNE
Cosmos 1842 4.2 23:33:46 47° NNW 23:33:46 47° NNW 23:36:44 10° N
Cosmos 1758 4.3 23:30:22 10° N 23:33:24 45° NNE 23:33:24 45° NNE
Cosmos 1092 Rocket 4.2 23:37:34 51° E 23:37:49 52° E 23:43:54 10° NNE
CZ-4C R/B 4.3 23:53:07 14° ENE 23:53:07 14° ENE 23:54:16 10° ENE
Nadezhda 4 Rocket 3.9 23:50:27 72° S 23:51:10 90° W 23:57:33 10° N
CZ-4B R/B 4.2 23:58:03 16° NE 23:58:03 16° NE 23:59:13 10° NNE
